Regional Weather Roundup
Issued by NWS

Home | Current Version | Previous Version | Graphics & Text | Print | Product List | Glossary On
Versions: 1 2 3 4 5 6 7 8 9 10 11 12 13 14 15 16 17 18 19 20 21 22 23 24 25 26 27 28 29 30 31 32 33 34 35 36 37 38 39 40 41 42 43 44 45 46 47 48 49 50
000
ASUS43 KBIS 300510
RWRND

NORTH DAKOTA REGIONAL WEATHER ROUNDUP
NATIONAL WEATHER SERVICE BISMARCK ND
1200 AM CDT TUE JUN 30 2015

NOTE: "FAIR" INDICATES FEW OR NO CLOUDS BELOW 12,000 FEET WITH NO
SIGNIFICANT WEATHER AND/OR OBSTRUCTIONS TO VISIBILITY.


NDZ001>003-009>011-017-300600-
NORTHWEST NORTH DAKOTA

CITY           SKY/WX    TMP DP  RH WIND       PRES   REMARKS
WILLISTON      CLOUDY    72  54  53 N17       30.00R HAZE
MINOT          MOCLDY    70  62  76 E6        29.95R
MINOT AFB      CLOUDY    71  67  87 NE8       29.96R
$$

NDZ018>021-031>035-040>046-300600-
SOUTHWEST NORTH DAKOTA

CITY           SKY/WX    TMP DP  RH WIND       PRES   REMARKS
BISMARCK       MOCLDY    73  65  75 NE7       29.93R
DICKINSON      CLOUDY    73  65  75 N10       29.95R
GARRISON         N/A     74  66  76 SE3       29.94R
HETTINGER ARPT MOCLDY    65  61  87 NW3       29.95F
$$

NDZ004>008-012>016-024-026-027-054-300600-
NORTHEAST NORTH DAKOTA

CITY           SKY/WX    TMP DP  RH WIND       PRES   REMARKS
GRAND FORKS    PTCLDY    59  57  93 N5        29.92R
GRND FRKS AFB  PTCLDY    61  59  92 N6        29.93S
DEVILS LAKE    CLOUDY    64  57  77 E5        29.95R
$$

NDZ022-023-025-028>030-036>039-047>053-300600-
SOUTHEAST NORTH DAKOTA

CITY           SKY/WX    TMP DP  RH WIND       PRES   REMARKS
FARGO          CLEAR     63  59  87 N6        29.91R
JAMESTOWN      CLOUDY    67  61  81 E7        29.94R
$$




USA.gov is the U.S. government's official web portal to all federal, state and local government web resources and services.